Regional Weather Roundup
Issued by NWS Charleston, SC

Current Version | Previous Version | Graphics & Text | Print | Product List | Glossary On
Versions: 1 2 3 4 5 6 7 8 9 10 11 12 13 14 15 16 17 18 19 20 21 22 23 24 25 26 27 28 29 30 31 32 33 34 35 36 37 38 39 40 41 42 43 44 45 46 47 48 49 50
000 ASUS42 KCHS 040026 RWRCHS REGIONAL WEATHER ROUNDUP NATIONAL WEATHER SERVICE CHARLESTON SC 700 PM EST TUE MAR 03 2015 NOTE: "FAIR" INDICATES FEW OR NO CLOUDS BELOW 12,000 FEET WITH NO SIGNIFICANT WEATHER AND/OR OBSTRUCTIONS TO VISIBILITY. NOT ALL STATIONS ARE QUALITY CONTROLLED BY THE NATIONAL WEATHER SERVICE. USE DATA WITH CAUTION...ESPECIALLY DEWPOINT OBSERVATIONS. SCZ027-030-031-034>040-042>050-040100- ...SOUTHEAST SOUTH CAROLINA... CITY SKY/WX TMP DP RH WIND PRES REMARKS N CHARLESTON MOCLDY 60 52 74 E5 30.16S 6HR MIN TEMP: 60; 6HR MAX TEMP: 64; WATERFRONT PRK N/A 52 N/A N/A SE6 N/A MOUNT PLEASANT FAIR 57 55 94 CALM 30.16S PINOPOLIS NOT AVBL MONCKS CORNER FAIR 52 46 82 CALM 30.16S SUMMERVILLE FAIR 52 50 93 N3 30.17R BEAUFORT MCAS PTCLDY 59 55 87 E3 30.15S 6HR MIN TEMP: 59; 6HR MAX TEMP: 69; BEAUFORT ARPT FAIR 55 55 100 E6 30.15S HILTON HEAD IS CLOUDY 54 52 94 NE3 30.17R FOG WALTERBORO CLEAR 57 54 88 NE3 30.16S ALLENDALE FAIR 54 52 94 CALM 30.15R ...SOUTHERN MIDLANDS AND PEE DEE... CITY SKY/WX TMP DP RH WIND PRES REMARKS GEORGETOWN NOT AVBL KINGSTREE NOT AVBL ORANGEBURG CLOUDY 46 44 93 NE6 30.17S FOG 6HR MIN TEMP: 46; 6HR MAX TEMP: 50; BARNWELL CLOUDY 52 52 100 E5 30.16S FOG AIKEN FOG 46 46 100 NE6 30.18S VSB 1/2 MANNING CLOUDY N/A N/A N/A CALM 30.17F COLUMBIA CLOUDY 45 43 93 E5 30.17S FOG 6HR MIN TEMP: 45; 6HR MAX TEMP: 46; 6HR PCP: 0.01; SUMTER CLOUDY 41 41 100 E3 30.16S FOG 6HR MIN TEMP: 41; 6HR MAX TEMP: 43; 6HR PCP: 0.02; FLORENCE CLOUDY 41 39 93 E3 30.18S 6HR MIN TEMP: 41; 6HR MAX TEMP: 43; 6HR PCP: 0.01; MYRTLE BEACH CLOUDY 48 45 87 N10 30.20S FOG N MYRTLE BEACH CLOUDY 48 46 93 N3 30.17S 6HR MIN TEMP: 48; 6HR MAX TEMP: 56; 6HR PCP: 0.01; $$ GAZ063-065-086>088-099>101-113>116-118-119-134>141-150-040100- ...SOUTHEAST GEORGIA... CITY SKY/WX TMP DP RH WIND PRES REMARKS SAVANNAH ARPT PTCLDY 61 55 81 E8 30.14R 6HR MIN TEMP: 61; 6HR MAX TEMP: 74; HUNTER AAF CLEAR 60 58 95 SE7 30.12S 6HR MIN TEMP: 60; 6HR MAX TEMP: 73; FORT STEWART MOCLDY 67 61 82 E6 30.11R 6HR MIN TEMP: 67; 6HR MAX TEMP: 76; STATESBORO CLEAR 67 64 91 CALM 30.12R SYLVANIA CLEAR 60 59 96 CALM 30.14R FOG CLAXTON FAIR 66 64 94 E5 30.12R ...CSRA...CENTRAL AND FAR SOUTHEAST GEORGIA... CITY SKY/WX TMP DP RH WIND PRES REMARKS THOMSON CLOUDY 52 52 100 CALM 30.19R VSB 1/4 AUGUSTA-BUSH CLOUDY 52 51 97 E6 30.15S FOG 6HR MIN TEMP: 53; 6HR MAX TEMP: 57; 6HR PCP: TRACE; AUGUSTA-DANIEL CLOUDY 54 52 93 E5 30.15S FOG SWAINSBORO NOT AVBL VIDALIA CLEAR 72 64 78 SE3 30.10S EASTMAN FAIR 71 64 78 CALM 30.12R HAZLEHURST FAIR 70 65 83 S3 30.09S ALMA CLOUDY 73 64 73 SE3 30.09S 6HR MIN TEMP: 73; 6HR MAX TEMP: 82; WAYCROSS CLEAR 74 69 82 SE8 30.10S JESUP FAIR 72 68 88 CALM 30.12R BAXLEY CLOUDY 73 66 78 CALM 30.10R BRUNSWICK CLEAR 64 61 88 SE6 30.15R SAINT SIMONS CLEAR 60 58 92 E5 30.14R 6HR MIN TEMP: 60; 6HR MAX TEMP: 70; $$ SCZ027-028-034-036>038-045-046-048>050-GAZ119-141-040100- ...LAKE AND SUPPLEMENTAL COASTAL OBSERVATIONS... STATION/POSITION TIME TEMP WIND PRES WAVE SWELL AIR SEA DIR/SP/G HT/PER HT/PER/DIR (UTC) (F) (DEG/KT/KT) (MB) (FT/S) (FT/S/D) UPR LAKE MARION NOT AVBL WINYAH BAY 2300 50 310/ 3 1021.0S LAKE MURRAY 2300 43 70/ 3/ 6 1021.0F ACE BASIN NERRS NOT AVBL FORT PULASKI 0000 51 50 70/ 6/ 7 1021.4R SAPELO ISLAND 0000 57 90/ 3 1020.0S $$ ANZ835-935-AMZ111-154-330-350-352-354-370-450-454-472-040100- ...C-MAN AND BUOY OBSERVATIONS... STATION/POSITION TIME TEMP WIND PRES WAVE SWELL AIR SEA DIR/SP/G HT/PER HT/PER/DIR (UTC) (F) (DEG/KT/KT) (MB) (FT/S) (FT/S/D) BUOY 41004 2350 61 68 360/ 6/ 8 1021.0R 5/ 8 5/ 8 BUOY 41008 2350 59 56 110/ 6/ 6 1020.5R 3/ 9 3/120/ 9 FOLLY BEACH CMAN 0000 50 70/ 5/ 6 1021.8F CAPERS NEARSHORE NOT AVBL FRIPP NEARSHORE 2300 51 90/ 8/ 10 1020.4F STATION/POSITION TIME TEMP WIND PRES WAVE SWELL AIR SEA DIR/SP/G HT/PER HT/PER/DIR (UTC) (F) (DEG/KT/KT) (MB) (FT/S) (FT/S/D) 5E ST. MARYS GA 2321 55 N/A 2/ 9 FRYING PAN BUOY 2350 66 61 190/ 12/ 16 1021.4R 6/ 6 3/100/ 6 BUOY 41025 NOT AVBL CAPE LOOKOUT NC 0000 56 150/ 15/ 16 1020.9F BUOY 41002 2350 67 72 150/ 16/ 19 1024.6R 6/ 9 5/ 50/ 9 BUOY 41010 2320 73 75 140/ 10/ 14 1022.0R ST AUGUSTINE FL 0000 62 180/ 6/ 7 1021.5R $$

USA.gov is the U.S. government's official web portal to all federal, state and local government web resources and services.